Location: Santa Barbara
(34.4500°N, 119.7700°W)
Time: 18:40:07
(UTC-07:00)

Cosmos 1892 Rocket - Visible Passes

Search period start: 30 July 2016 00:00
Search period end: 09 August 2016 00:00
Orbit: 605 x 635 km, 82.5° (Epoch: 30 July)

Date Brightness Start Highest point End Pass type
(mag) Time Alt. Az. Time Alt. Az. Time Alt. Az.
30 Jul 6.1 00:12:18 10° NNW 00:13:32 18° NNW 00:13:32 18° NNW visible
30 Jul 6.0 22:53:05 10° NNE 22:53:58 14° NE 22:53:58 14° NE visible
31 Jul 6.4 00:30:28 10° NNW 00:31:08 13° NW 00:31:08 13° NW visible
31 Jul 5.7 23:10:03 10° N 23:11:35 20° NNE 23:11:35 20° NNE visible
01 Aug 5.7 23:27:29 10° N 23:29:12 23° N 23:29:12 23° N visible
02 Aug 6.0 23:45:18 10° NNW 23:46:51 21° NNW 23:46:51 21° NNW visible
03 Aug 5.7 22:25:54 10° NNE 22:27:19 16° NE 22:27:19 16° NE visible
04 Aug 6.3 00:03:32 10° NW 00:04:30 15° NW 00:04:30 15° NW visible
04 Aug 5.3 22:42:56 10° N 22:45:00 25° NNE 22:45:00 25° NNE visible
05 Aug 5.3 23:00:27 10° N 23:02:40 30° N 23:02:40 30° N visible
06 Aug 5.9 21:42:30 10° NE 21:43:11 11° NE 21:43:11 11° NE visible
06 Aug 5.7 23:18:18 10° NNW 23:20:22 25° NW 23:20:22 25° NW visible
07 Aug 5.3 21:58:43 10° NNE 22:00:54 21° NE 22:00:54 21° NE visible
07 Aug 6.2 23:36:37 10° NW 23:38:05 17° NW 23:38:05 17° NW visible
08 Aug 4.8 22:15:51 10° N 22:18:38 34° NNE 22:18:38 34° NNE visible
